Retour au catalogue

LEASAT 1 DEB *

ActifHEO
NORAD 18904·DEBRIS·🇺🇸 United States

Lancé Nov 8, 1984 depuis Cape Canaveral Space Force Station

Loading…

Prochains Passages (prochaines 24 heures)

TLE

FraisSource: Space-Track

Époque: Sep 14, 2026, 09:58 UTC

1 18904U 84113F   26257.41556691  .00014303  00000-0  17041-2 0  9994
2 18904  26.6193 333.0529 3434927 359.5958   0.2046  8.40745150372853

Suivez LEASAT 1 DEB * en temps réel avec AllMySat

Download on the App Store